ELECTRON KICK STAGE R/B, 65973

Orbit data source: Space-Track

ELECTRON KICK STAGE R/B, 65973 is space debris in LEO originally from an American launch on Tue, 14 Oct 2025 UTC via an ELECTRON launch vehicle from the Rocket Lab Launch Complex (RLLC). Debris objects in space refer to the collection of defunct objects orbiting the Earth. Examples of debris include non-operational satellites, rocket bodies, and fragments generated from explosions, collisions, or faulty payload assembly.

Loading next visibility...
Identifier
65973, 2025-229C
Orbit
LEO
Country
Flag of USUS
Related business
None
Manufacturer
Unknown
Mission
Spacecraft
Bus & Motor
Unknown
Mass
Unknown
Launch date (UTC)
2025-10-14 (4 days ago)
Launch vehicle
ELECTRON
Launch site
Rocket Lab Launch Complex (RLLC)
Object type
Payload
Rocket body
Debris
Shape & HBR
Unknown
Radar Cross Section
RCS unknown

Expand to show TLE details & history
Last TLE update: 8 hours ago

TLE from 8 hours ago
0 ELECTRON KICK STAGE R/B
1 65973U 25229C   25290.77100788  .00009341  00000-0  69503-3 0  9999
2 65973  41.9835 188.9615 0042094 267.1448  92.4560 15.02331080   460
Epoch: 2025-10-17T18:30Z
TLE epoch observation values (Epoch: 2025-10-17T18:30:15.080Z)
Latitude
-0.00003°
Longitude
-115.11297°
Altitude
560.75 km
Speed
7.582 km/s
True Right ascension
12h 35m 50s
True Declination
0° 00' 00"
Sunlit
Object was in daylight at epoch
Visualization orbit readout
Latitude
Unknown
Longitude
Unknown
Altitude
Unknown
Speed
Unknown
Apparent Right ascension
Unknown
Apparent Declination
Unknown
Sunlit
N/A
Visualization observer readout
Local Sidereal Time
21:28:12
Azimuth
Unknown
Elevation
Unknown
Doppler factor
Unknown
Orbital elements
Apogee altitude
591.016 km
Perigee altitude
532.59 km
Semi-major axis
6,939.94 km
Eccentricity
0.00421
Inclination
41.9835°
RAAN
188.9615°
Arg. of periapsis
267.1448°
True anomaly
92.9378°
Mean anomaly
92.456°
Eccentric anomaly
92.69691°
Mean motion
3.75413 °/min
Orbital period
95.89 mins
BSTAR
0.00069503
Loading maneuver chart data...
Computing Atmospheric mass density...
Loading historical data...
Loading historical data...
Loading historical data...
Loading historical data...
Loading historical data...
Loading historical data...
Loading historical data...
Other satellites on launch #229 in the year 2025 (2025-10-14 UTC)

Documentation

Showing up to 5 results
|